EW9060 Weather Reports


time (UTC)temp
C
wind
direction
speed
KPH
gust
KPH
rain 1hr
cm
rain 24hr
cm
rain mn
cm
humidity
%
barometer
mb
20260831093000 16 148 1.6 14.5 0.00 0.00 0.00 70 1010.9
20260831091600 17 189 3.2 14.5 0.00 0.00 0.00 69 1011.0
20260831090107 17 11 3.2 12.9 0.00 0.00 0.00 68 1011.0
20260831084557 17 11 3.2 14.5 0.00 0.00 0.00 67 1011.0
20260831083055 17 11 1.6 9.7 0.00 0.00 0.00 67 1011.0
20260831081557 17 12 1.6 12.9 0.00 0.00 0.00 66 1011.0
20260831080052 17 11 1.6 16.1 0.00 0.00 0.00 66 1011.1
20260831074547 18 11 3.2 14.5 0.00 0.00 0.00 66 1011.0
20260831073045 18 11 4.8 14.5 0.00 0.00 0.00 65 1010.9
20260831071546 18 11 4.8 12.9 0.00 0.00 0.00 64 1010.9
20260831070041 18 11 4.8 12.9 0.00 0.00 0.00 63 1010.9
20260831064541 19 11 6.4 14.5 0.00 0.00 0.00 63 1010.9
20260831063040 19 12 0.0 9.7 0.00 0.00 0.00 63 1011.0
20260831061539 19 11 3.2 9.7 0.00 0.00 0.00 63 1010.9
20260831060039 20 11 1.6 8.0 0.00 0.00 0.00 62 1010.8
20260831054538 20 12 3.2 9.7 0.00 0.00 0.00 61 1010.8
20260831053038 20 12 1.6 12.9 0.00 0.00 0.00 60 1010.8
20260831051550 21 11 1.6 12.9 0.00 0.00 0.00 58 1010.9
20260831050037 21 12 3.2 12.9 0.00 0.00 0.00 56 1010.8
20260831044536 21 12 1.6 12.9 0.00 0.00 0.00 55 1010.7
20260831043035 22 12 0.0 12.9 0.00 0.00 0.00 54 1010.6
20260831041537 22 12 1.6 12.9 0.00 0.00 0.00 52 1010.6
20260831041505 22 11 1.6 12.9 0.00 0.00 0.00 52 1010.7
20260831040036 23 13 1.6 16.1 0.00 0.00 0.00 49 1010.4
20260831034537 25 12 4.8 11.3 0.00 0.00 0.00 46 1010.4
20260831033034 25 11 3.2 14.5 0.00 0.00 0.00 44 1010.2
20260831031532 26 13 3.2 14.5 0.00 0.00 0.00 40 1010.1
20260831030032 26 139 0.0 12.9 0.00 0.00 0.00 37 1010.1
20260831024534 27 178 1.6 14.5 0.00 0.00 0.00 37 1010.0
20260831023030 28 208 1.6 19.3 0.00 0.00 0.00 34 1009.9
20260831021531 29 184 4.8 11.3 0.00 0.00 0.00 30 1009.9
20260831020029 30 162 3.2 9.7 0.00 0.00 0.00 27 1009.8
20260831014530 31 169 0.0 11.3 0.00 0.00 0.00 29 1009.8
20260831013028 32 179 0.0 11.3 0.00 0.00 0.00 30 1009.8
20260831011537 33 186 3.2 12.9 0.00 0.00 0.00 29 1009.9
20260831010025 33 248 0.0 8.0 0.00 0.00 0.00 27 1010.0
20260831004523 33 139 0.0 12.9 0.00 0.00 0.00 27 1010.0
20260831003033 33 283 0.0 6.4 0.00 0.00 0.00 25 1010.1
20260831001521 33 212 3.2 12.9 0.00 0.00 0.00 25 1010.2
20260831000021 33 266 0.0 12.9 0.00 0.00 0.00 27 1010.3
20260830234527 33 248 1.6 8.0 0.00 0.00 0.00 28 1010.4
20260830233012 33 267 1.6 8.0 0.00 0.00 0.00 29 1010.6
20260830231508 33 194 3.2 8.0 0.00 0.00 0.00 30 1010.7
20260830230005 33 300 0.0 8.0 0.00 0.00 0.00 31 1010.9
20260830224600 33 176 0.0 4.8 0.00 0.00 0.00 30 1011.0
20260830223110 32 319 1.6 8.0 0.00 0.00 0.00 30 1011.2
20260830221554 32 274 0.0 8.0 0.00 0.00 0.00 31 1011.5
20260830220051 31 296 1.6 6.4 0.00 0.00 0.00 31 1011.8
20260830214555 31 165 1.6 6.4 0.00 0.00 0.00 32 1012.0
20260830213044 31 298 1.6 9.7 0.00 0.00 0.00 32 1012.2
20260830211541 31 98 0.0 4.8 0.00 0.00 0.00 35 1012.4
20260830210038 30 315 0.0 9.7 0.00 0.00 0.00 35 1012.5
20260830204536 30 263 1.6 8.0 0.00 0.00 0.00 37 1012.7
20260830203034 29 30 1.6 4.8 0.00 0.00 0.00 38 1012.9
20260830201532 29 254 0.0 4.8 0.00 0.00 0.00 39 1013.0
20260830200041 28 137 1.6 8.0 0.00 0.00 0.00 41 1013.2
20260830194524 27 148 0.0 8.0 0.00 0.00 0.00 43 1013.3
20260830193022 27 88 1.6 6.4 0.00 0.00 0.00 43 1013.5
20260830191519 26 303 0.0 6.4 0.00 0.00 0.00 46 1013.6
20260830190039 26 110 1.6 6.4 0.00 0.00 0.00 45 1013.8
20260830184514 25 239 0.0 6.4 0.00 0.00 0.00 47 1013.9
20260830183011 24 121 0.0 9.7 0.00 0.00 0.00 50 1013.9
20260830181508 24 252 1.6 3.2 0.00 0.00 0.00 51 1014.1
20260830180004 23 237 1.6 8.0 0.00 0.00 0.00 53 1014.2
20260830174609 22 178 0.0 4.8 0.00 0.00 0.00 56 1014.4
20260830173056 21 109 0.0 6.4 0.00 0.00 0.00 58 1014.4
20260830171553 21 170 0.0 6.4 0.00 0.00 0.00 60 1014.4
20260830170049 20 76 0.0 6.4 0.00 0.00 0.00 61 1014.4
20260830164545 20 101 0.0 4.8 0.00 0.00 0.00 63 1014.4
20260830163042 19 86 0.0 4.8 0.00 0.00 0.00 65 1014.4
20260830161546 18 48 1.6 6.4 0.00 0.00 0.00 67 1014.4
20260830160041 18 55 0.0 6.4 0.00 0.00 0.00 69 1014.3
20260830154536 17 139 0.0 4.8 0.00 0.00 0.00 70 1014.3
20260830153034 17 138 0.0 0.0 0.00 0.00 0.00 72 1014.3
20260830151533 16 15 1.6 4.8 0.00 0.00 0.00 74 1014.2
20260830150031 16 11 0.0 4.8 0.00 0.00 0.00 75 1014.2
20260830144532 15 13 0.0 4.8 0.00 0.00 0.00 77 1014.1
20260830143026 15 13 0.0 4.8 0.00 0.00 0.00 78 1014.0
20260830141524 15 17 0.0 3.2 0.00 0.00 0.00 79 1013.7
20260830140024 14 151 0.0 3.2 0.00 0.00 0.00 79 1013.6
20260830134527 14 123 1.6 6.4 0.00 0.00 0.00 79 1013.4
20260830133019 15 145 0.0 8.0 0.00 0.00 0.00 79 1013.3
20260830131515 15 107 0.0 0.0 0.00 0.00 0.00 78 1013.2
20260830130015 15 158 0.0 6.4 0.00 0.00 0.00 77 1013.0
20260830124517 15 178 0.0 8.0 0.00 0.00 0.00 77 1012.8
20260830123010 15 124 0.0 8.0 0.00 0.00 0.00 76 1012.8
20260830121510 15 192 0.0 8.0 0.00 0.00 0.00 76 1012.8
20260830120007 15 151 0.0 4.8 0.00 0.00 0.00 75 1012.8
20260830114505 15 167 0.0 6.4 0.00 0.00 0.00 74 1012.8
20260830113004 16 150 0.0 8.0 0.00 0.00 0.00 73 1012.9
20260830111503 16 159 0.0 12.9 0.00 0.00 0.00 73 1012.8
20260830110100 16 189 0.0 8.0 0.00 0.00 0.00 72 1012.8
20260830104607 16 174 1.6 12.9 0.00 0.00 0.00 71 1012.7
20260830103058 16 155 3.2 12.9 0.00 0.00 0.00 70 1012.6
20260830101555 16 142 0.0 11.3 0.00 0.00 0.00 69 1012.5
20260830100054 16 134 3.2 12.9 0.00 0.00 0.00 68 1012.5
20260830094551 17 161 3.2 16.1 0.00 0.00 0.00 68 1012.5